GW0963 Weather Reports


time (UTC)temp
C
wind
direction
speed
KPH
gust
KPH
rain 1hr
cm
rain 24hr
cm
rain mn
cm
humidity
%
barometer
mb
20260505093030 2 271 4.8 9.7 0.00 0.00 0.00 67 1003.5
20260505092527 3 211 1.6 8.0 0.00 0.00 0.00 67 1003.3
20260505092026 3 264 6.4 11.3 0.00 0.00 0.00 66 1003.3
20260505091522 3 262 6.4 9.7 0.00 0.00 0.00 66 1003.3
20260505091020 3 282 4.8 8.0 0.00 0.00 0.00 65 1003.2
20260505090518 3 295 3.2 8.0 0.00 0.00 0.00 65 1003.2
20260505090016 3 263 4.8 8.0 0.00 0.00 0.00 64 1003.0
20260505085513 3 272 3.2 8.0 0.00 0.00 0.00 64 1003.1
20260505085011 3 274 3.2 8.0 0.00 0.00 0.00 63 1003.0
20260505084509 3 248 4.8 8.0 0.00 0.00 0.00 62 1002.7
20260505084007 3 298 4.8 9.7 0.00 0.00 0.00 61 1002.7
20260505083504 3 229 3.2 8.0 0.00 0.00 0.00 61 1002.6
20260505083000 3 298 6.4 8.0 0.00 0.00 0.00 61 1002.5
20260505082456 3 275 6.4 9.7 0.00 0.00 0.00 60 1002.6
20260505081953 3 269 8.0 11.3 0.00 0.00 0.00 60 1002.7
20260505081450 3 244 3.2 8.0 0.00 0.00 0.00 60 1002.8
20260505080946 4 240 1.6 11.3 0.00 0.00 0.00 59 1002.6
20260505080442 4 257 6.4 11.3 0.00 0.00 0.00 59 1002.4
20260505075938 4 281 4.8 9.7 0.00 0.00 0.00 58 1002.6
20260505075435 4 292 3.2 8.0 0.00 0.00 0.00 58 1002.4
20260505074933 4 281 4.8 6.4 0.00 0.00 0.00 58 1002.6
20260505074430 4 295 6.4 8.0 0.00 0.00 0.00 57 1002.5
20260505073927 4 281 4.8 8.0 0.00 0.00 0.00 57 1002.6
20260505073425 4 289 4.8 9.7 0.00 0.00 0.00 57 1002.6
20260505072921 5 266 4.8 9.7 0.00 0.00 0.00 57 1002.7
20260505072418 5 284 8.0 12.9 0.00 0.00 0.00 56 1002.7
20260505071914 5 273 4.8 11.3 0.00 0.00 0.00 56 1002.6
20260505071410 5 286 1.6 8.0 0.00 0.00 0.00 56 1002.5
20260505070908 5 303 4.8 8.0 0.00 0.00 0.00 55 1002.7
20260505070404 5 274 6.4 8.0 0.00 0.00 0.00 55 1002.8
20260505065900 5 331 0.0 11.3 0.00 0.00 0.00 54 1002.7
20260505065357 5 308 4.8 9.7 0.00 0.00 0.00 54 1002.8
20260505064854 5 300 3.2 4.8 0.00 0.00 0.00 54 1002.6
20260505064351 5 314 1.6 6.4 0.00 0.00 0.00 53 1002.7
20260505063850 5 330 4.8 12.9 0.00 0.00 0.00 53 1003.1
20260505063345 5 312 4.8 14.5 0.00 0.00 0.00 52 1002.7
20260505062842 5 304 4.8 8.0 0.00 0.00 0.00 51 1003.1
20260505062339 5 285 4.8 11.3 0.00 0.00 0.00 51 1003.0
20260505061836 6 341 3.2 11.3 0.00 0.00 0.00 50 1003.0
20260505061334 6 324 4.8 16.1 0.00 0.00 0.00 50 1003.0
20260505060831 6 301 12.9 20.9 0.00 0.00 0.00 50 1003.0
20260505060328 6 317 6.4 14.5 0.00 0.00 0.00 49 1002.7
20260505055824 6 324 6.4 20.9 0.00 0.00 0.00 49 1003.0
20260505055320 6 300 11.3 12.9 0.00 0.00 0.00 49 1002.7
20260505054817 6 308 6.4 19.3 0.00 0.00 0.00 49 1002.8
20260505054315 6 320 16.1 17.7 0.00 0.00 0.00 49 1003.0
20260505053813 6 304 17.7 17.7 0.00 0.00 0.00 49 1002.8
20260505053309 6 34 3.2 16.1 0.00 0.00 0.00 49 1002.7
20260505052806 6 334 6.4 29.0 0.00 0.00 0.00 48 1002.6
20260505052304 6 322 6.4 19.3 0.00 0.00 0.00 49 1002.7
20260505051800 6 297 11.3 37.0 0.00 0.00 0.00 48 1002.7
20260505051258 6 323 14.5 19.3 0.00 0.00 0.00 49 1002.6
20260505050755 6 295 8.0 30.6 0.00 0.00 0.00 49 1002.6
20260505050254 6 38 0.0 14.5 0.00 0.00 0.00 51 1002.6
20260505041729 7 284 8.0 16.1 0.00 0.00 0.00 52 1001.6
20260505041226 7 331 11.3 20.9 0.00 0.00 0.00 51 1001.6
20260505040723 7 357 4.8 27.4 0.00 0.00 0.00 51 1001.5
20260505040220 8 331 9.7 32.2 0.00 0.00 0.00 50 1001.5
20260505035717 8 312 14.5 33.8 0.00 0.00 0.00 49 1001.4
20260505035213 8 349 6.4 20.9 0.00 0.00 0.00 50 1001.5
20260505034710 8 337 9.7 40.2 0.00 0.00 0.00 49 1001.5
20260505034207 8 293 8.0 20.9 0.00 0.00 0.00 50 1001.3
20260505033703 8 11 9.7 20.9 0.00 0.00 0.00 50 1001.2
20260505033202 8 331 8.0 35.4 0.00 0.00 0.00 49 1001.0
20260505032659 8 309 8.0 45.1 0.00 0.00 0.00 49 1001.1
20260505032155 8 315 8.0 33.8 0.00 0.00 0.00 48 1001.0
20260505031653 9 311 24.1 24.1 0.00 0.00 0.00 48 1000.9
20260505031149 9 308 8.0 27.4 0.00 0.00 0.00 47 1000.7
20260505030646 9 353 9.7 35.4 0.00 0.00 0.00 46 1000.6
20260505030141 9 332 17.7 38.6 0.00 0.00 0.00 46 1000.5
20260505025638 10 286 9.7 32.2 0.00 0.00 0.00 46 1000.4
20260505025136 10 290 11.3 25.7 0.00 0.00 0.00 45 1000.3
20260505024634 10 350 6.4 33.8 0.00 0.00 0.00 45 1000.3
20260505024131 10 319 14.5 51.5 0.00 0.00 0.00 44 1000.2
20260505023628 10 286 20.9 33.8 0.00 0.00 0.00 44 1000.1
20260505023125 10 317 6.4 27.4 0.00 0.00 0.00 44 1000.1
20260505022623 10 322 6.4 35.4 0.00 0.00 0.00 43 999.8
20260505022119 10 278 9.7 24.1 0.00 0.00 0.00 43 999.8
20260505021616 10 300 8.0 19.3 0.00 0.00 0.00 43 999.8
20260505021113 11 283 11.3 40.2 0.00 0.00 0.00 42 999.7
20260505020608 11 321 17.7 25.7 0.00 0.00 0.00 43 999.7
20260505020105 11 320 14.5 35.4 0.00 0.00 0.00 43 999.6
20260505015602 11 260 6.4 35.4 0.00 0.00 0.00 43 999.5
20260505015058 11 335 14.5 49.9 0.00 0.00 0.00 43 999.7
20260505014555 11 306 24.1 29.0 0.00 0.00 0.00 44 999.4
20260505014052 12 296 17.7 29.0 0.00 0.00 0.00 44 999.0
20260505013549 12 323 14.5 32.2 0.00 0.00 0.00 43 998.9
20260505013047 12 286 16.1 35.4 0.00 0.00 0.00 43 998.9
20260505012545 12 292 12.9 24.1 0.00 0.00 0.00 43 998.8
20260505012042 12 325 1.6 30.6 0.00 0.00 0.00 43 998.6
20260505011537 12 294 12.9 35.4 0.00 0.00 0.00 42 998.6
20260505011035 12 308 12.9 41.8 0.00 0.00 0.00 42 998.5
20260505010530 12 292 32.2 35.4 0.00 0.00 0.00 42 998.5
20260505010027 13 312 8.0 27.4 0.00 0.00 0.00 42 998.3
20260505005523 13 295 12.9 38.6 0.00 0.00 0.00 41 998.0
20260505005021 13 280 12.9 24.1 0.00 0.00 0.00 41 998.1
20260505004517 13 304 16.1 27.4 0.00 0.00 0.00 41 998.1
20260505004014 13 322 9.7 35.4 0.00 0.00 0.00 41 998.0
20260505003511 13 330 43.5 45.1 0.00 0.00 0.00 41 997.8
20260505003009 14 322 6.4 37.0 0.00 0.00 0.00 41 997.7
20260505002503 14 277 14.5 45.1 0.00 0.00 0.00 41 997.6
20260505002002 14 300 19.3 40.2 0.00 0.00 0.00 40 997.4
20260505001459 15 262 17.7 46.7 0.00 0.00 0.00 40 997.3
20260505000956 15 279 19.3 46.7 0.00 0.00 0.00 39 997.1
20260505000454 15 313 17.7 37.0 0.00 0.00 0.00 39 997.0
20260504235951 15 332 6.4 20.9 0.00 0.00 0.00 40 997.0
20260504235448 15 255 14.5 41.8 0.00 0.00 0.00 39 997.0
20260504234944 15 292 22.5 43.5 0.00 0.00 0.00 39 997.0
20260504234442 15 290 30.6 40.2 0.00 0.00 0.00 39 996.8
20260504233938 15 284 20.9 61.2 0.00 0.00 0.00 39 996.7
20260504233434 16 305 9.7 40.2 0.00 0.00 0.00 37 996.6
20260504232931 16 256 11.3 33.8 0.00 0.00 0.00 36 996.9
20260504232428 16 268 22.5 32.2 0.00 0.00 0.00 34 996.7
20260504231925 16 282 17.7 35.4 0.00 0.00 0.00 32 996.8
20260504231421 16 236 43.5 48.3 0.00 0.00 0.00 29 996.7
20260504230918 16 280 27.4 57.9 0.00 0.00 0.00 28 996.9
20260504230415 17 256 20.9 38.6 0.00 0.00 0.00 28 996.5
20260504225914 17 280 30.6 48.3 0.00 0.00 0.00 32 996.6
20260504225410 17 281 38.6 38.6 0.00 0.00 0.00 34 996.4
20260504224908 17 275 16.1 38.6 0.00 0.00 0.00 37 996.3
20260504224404 17 265 20.9 41.8 0.00 0.00 0.00 37 996.3
20260504223901 17 246 17.7 40.2 0.00 0.00 0.00 37 996.2
20260504223356 17 268 20.9 35.4 0.00 0.00 0.00 37 996.3
20260504222853 17 262 38.6 51.5 0.00 0.00 0.00 36 996.1
20260504222350 17 251 24.1 54.7 0.00 0.00 0.00 36 995.9
20260504221848 17 283 25.7 49.9 0.00 0.00 0.00 35 995.8
20260504221345 17 293 27.4 38.6 0.00 0.00 0.00 36 995.7
20260504220842 17 256 27.4 48.3 0.00 0.00 0.00 35 995.9
20260504220338 17 261 20.9 46.7 0.00 0.00 0.00 35 995.9
20260504215836 17 294 20.9 45.1 0.00 0.00 0.00 35 995.7
20260504215332 18 246 9.7 30.6 0.00 0.00 0.00 34 995.6
20260504214828 17 256 24.1 38.6 0.00 0.00 0.00 33 995.3
20260504214325 18 280 35.4 43.5 0.00 0.00 0.00 33 995.4
20260504213822 18 246 22.5 35.4 0.00 0.00 0.00 34 995.6
20260504213318 18 271 14.5 37.0 0.00 0.00 0.00 35 995.4
20260504212815 18 302 11.3 32.2 0.00 0.00 0.00 35 995.3
20260504212311 18 295 9.7 37.0 0.00 0.00 0.00 34 995.4
20260504211809 18 285 22.5 38.6 0.00 0.00 0.00 33 995.4
20260504211305 18 241 27.4 37.0 0.00 0.00 0.00 33 995.5
20260504210803 18 262 11.3 33.8 0.00 0.00 0.00 33 995.3
20260504210300 18 289 11.3 56.3 0.00 0.00 0.00 33 995.4
20260504205757 18 268 19.3 41.8 0.00 0.00 0.00 32 995.3
20260504205254 18 296 17.7 33.8 0.00 0.00 0.00 31 995.4
20260504204752 18 234 12.9 38.6 0.00 0.00 0.00 33 995.4
20260504204250 18 264 24.1 40.2 0.00 0.00 0.00 31 995.4
20260504203750 18 289 30.6 53.1 0.00 0.00 0.00 31 995.3
20260504203246 19 283 12.9 40.2 0.00 0.00 0.00 30 995.2
20260504202741 18 269 33.8 61.2 0.00 0.00 0.00 31 995.2
20260504202239 18 278 14.5 38.6 0.00 0.00 0.00 30 995.1
20260504201736 19 242 14.5 41.8 0.00 0.00 0.00 31 995.0
20260504201233 19 252 11.3 32.2 0.00 0.00 0.00 30 995.3
20260504200731 18 260 20.9 66.0 0.00 0.00 0.00 30 995.2
20260504200226 19 257 14.5 35.4 0.00 0.00 0.00 30 994.9
20260504195723 18 280 11.3 45.1 0.00 0.00 0.00 30 995.0
20260504195219 18 252 20.9 49.9 0.00 0.00 0.00 30 995.0
20260504194716 19 290 20.9 32.2 0.00 0.00 0.00 28 994.9
20260504194212 20 248 30.6 46.7 0.00 0.00 0.00 27 994.9
20260504193709 20 297 37.0 59.5 0.00 0.00 0.00 26 994.7
20260504193206 20 230 30.6 49.9 0.00 0.00 0.00 26 994.8
20260504192704 20 286 37.0 40.2 0.00 0.00 0.00 26 994.7
20260504192202 20 275 32.2 54.7 0.00 0.00 0.00 24 994.6
20260504191701 20 250 24.1 48.3 0.00 0.00 0.00 21 994.8
20260504191156 20 271 27.4 45.1 0.00 0.00 0.00 19 994.7
20260504190652 20 256 12.9 38.6 0.00 0.00 0.00 25 994.4
20260504190149 20 262 32.2 46.7 0.00 0.00 0.00 29 994.4
20260504185645 20 295 9.7 64.4 0.00 0.00 0.00 31 994.2
20260504185142 20 207 19.3 33.8 0.00 0.00 0.00 33 994.1
20260504184638 19 254 29.0 40.2 0.00 0.00 0.00 33 994.4
20260504184133 20 246 17.7 45.1 0.00 0.00 0.00 33 994.4
20260504183630 20 271 22.5 37.0 0.00 0.00 0.00 30 994.1
20260504183128 20 277 51.5 56.3 0.00 0.00 0.00 30 993.9
20260504182625 20 265 14.5 51.5 0.00 0.00 0.00 33 994.0
20260504182123 20 240 20.9 41.8 0.00 0.00 0.00 36 994.2
20260504181620 19 292 24.1 48.3 0.00 0.00 0.00 36 994.1
20260504181118 19 300 33.8 48.3 0.00 0.00 0.00 37 994.2
20260504180617 20 280 6.4 37.0 0.00 0.00 0.00 38 994.1
20260504180115 20 301 20.9 41.8 0.00 0.00 0.00 38 994.0
20260504175612 19 277 12.9 53.1 0.00 0.00 0.00 38 994.0
20260504175109 19 290 24.1 56.3 0.00 0.00 0.00 36 994.4
20260504174607 20 253 35.4 49.9 0.00 0.00 0.00 34 994.0
20260504174103 19 290 29.0 49.9 0.00 0.00 0.00 37 994.2
20260504173600 20 218 20.9 43.5 0.00 0.00 0.00 37 993.9
20260504173058 19 237 19.3 46.7 0.00 0.00 0.00 38 994.1
20260504172554 20 279 17.7 46.7 0.00 0.00 0.00 38 994.1
20260504172050 20 244 12.9 43.5 0.00 0.00 0.00 38 994.0
20260504171547 20 277 30.6 38.6 0.00 0.00 0.00 38 994.1
20260504171044 19 281 19.3 45.1 0.00 0.00 0.00 40 994.4
20260504170539 19 271 8.0 43.5 0.00 0.00 0.00 40 994.0
20260504150924 18 250 14.5 29.0 0.00 0.00 0.00 43 993.9
20260504150420 18 257 14.5 48.3 0.00 0.00 0.00 43 993.9
20260504140847 17 208 17.7 43.5 0.00 0.00 0.00 40 994.1
20260504140343 17 200 17.7 40.2 0.00 0.00 0.00 41 993.8
20260504130812 15 230 6.4 38.6 0.00 0.00 0.00 44 994.8
20260504130308 15 210 19.3 37.0 0.00 0.00 0.00 43 994.9
20260504120231 12 205 24.1 27.4 0.00 0.00 0.00 50 995.5
20260504110659 11 207 6.4 16.1 0.00 0.00 0.00 52 995.9
20260504110155 11 198 9.7 19.3 0.00 0.00 0.00 52 996.0
20260504100119 9 19 3.2 4.8 0.00 0.00 0.00 61 997.3